GW1109 Weather Reports


time (UTC)temp
C
wind
direction
speed
KPH
gust
KPH
rain 1hr
cm
rain 24hr
cm
rain mn
cm
humidity
%
barometer
mb
20260510031553 10 61 0.0 1.6 0.00 1.47 1.47 100 1012.7
20260510030046 10 5 0.0 3.2 0.00 1.47 1.47 100 1012.6
20260510024604 10 0 0.0 0.0 0.03 1.47 1.47 100 1012.7
20260510023041 10 355 1.6 3.2 0.03 1.47 1.47 100 1012.6
20260510021548 10 355 3.2 6.4 0.05 1.47 1.47 100 1012.6
20260510020047 10 360 1.6 4.8 0.05 1.47 1.47 100 1012.7
20260510014608 10 9 0.0 3.2 0.03 1.45 1.45 100 1012.9
20260510013059 10 355 0.0 4.8 0.03 1.45 1.45 100 1012.9
20260510011544 10 0 0.0 3.2 0.03 1.42 1.42 100 1012.8
20260510010041 10 0 0.0 4.8 0.03 1.42 1.42 100 1012.7
20260510004555 10 19 1.6 6.4 0.03 1.42 1.42 100 1012.7
20260510003048 9 0 3.2 9.7 0.05 1.42 1.42 100 1012.5
20260510001546 9 80 3.2 9.7 0.08 1.40 1.40 100 1012.4
20260510000048 9 61 1.6 9.7 0.13 1.40 1.40 100 1012.2
20260509234546 9 0 0.0 8.0 0.15 1.40 1.40 100 1012.2
20260509233053 9 82 1.6 11.3 0.18 1.37 1.37 100 1012.0
20260509231557 9 94 0.0 8.0 0.18 1.32 1.32 100 1012.2
20260509230048 9 0 0.0 6.4 0.20 1.27 1.27 100 1012.5
20260509224546 9 0 1.6 8.0 0.23 1.24 1.24 100 1012.7
20260509223051 8 105 1.6 6.4 0.28 1.19 1.19 99 1012.8
20260509221547 8 61 4.8 14.5 0.25 1.14 1.14 99 1012.8
20260509220045 9 23 1.6 12.9 0.20 1.07 1.07 99 1012.9
20260509214550 9 170 3.2 12.9 0.20 1.02 1.02 98 1012.8
20260509213052 9 0 1.6 14.5 0.10 0.91 0.91 98 1013.1
20260509211554 9 123 0.0 11.3 0.08 0.89 0.89 98 1013.1
20260509210054 9 57 3.2 11.3 0.05 0.86 0.86 98 1013.3
20260509204547 9 126 1.6 11.3 0.00 0.81 0.81 98 1013.1
20260509203044 10 79 4.8 14.5 0.03 0.81 0.81 98 1012.7
20260509201542 10 31 1.6 12.9 0.08 0.81 0.81 98 1013.2
20260509200047 10 166 1.6 12.9 0.10 0.81 0.81 98 1012.8
20260509194546 10 109 1.6 8.0 0.15 0.81 0.81 98 1013.3
20260509193047 9 0 3.2 12.9 0.20 0.79 0.79 97 1013.8
20260509191546 9 86 3.2 9.7 0.23 0.74 0.74 96 1013.7
20260509190051 8 0 1.6 8.0 0.28 0.71 0.71 95 1014.0
20260509184546 8 0 1.6 6.4 0.33 0.66 0.66 94 1014.0
20260509183043 8 0 1.6 9.7 0.30 0.58 0.58 94 1014.3
20260509181544 8 136 0.0 9.7 0.30 0.51 0.51 92 1014.3
20260509180045 8 169 1.6 6.4 0.28 0.43 0.43 91 1014.4
20260509174541 8 0 0.0 6.4 0.23 0.33 0.33 89 1014.4
20260509173114 8 0 1.6 6.4 0.23 0.28 0.28 87 1014.4
20260509171548 8 147 1.6 9.7 0.18 0.20 0.20 86 1014.1
20260509170055 8 123 4.8 9.7 0.13 0.15 0.15 83 1014.2
20260509164544 8 162 3.2 6.4 0.10 0.10 0.10 80 1014.2
20260509163042 8 175 1.6 8.0 0.05 0.05 0.05 76 1014.3
20260509161549 9 80 1.6 9.7 0.03 0.03 0.03 73 1014.5
20260509160050 9 196 6.4 11.3 0.00 0.00 0.00 67 1014.6
20260509154547 9 176 4.8 11.3 0.00 0.00 0.00 65 1014.6
20260509153046 9 207 6.4 16.1 0.00 0.00 0.00 57 1014.7
20260509151602 10 236 4.8 12.9 0.00 0.00 0.00 56 1014.7
20260509150046 10 250 6.4 17.7 0.00 0.00 0.00 52 1014.6
20260509144540 10 156 11.3 27.4 0.00 0.00 0.00 46 1014.3
20260509143054 11 189 9.7 20.9 0.00 0.00 0.00 40 1014.0
20260509141549 11 217 4.8 19.3 0.00 0.00 0.00 43 1014.0
20260509140049 11 134 6.4 16.1 0.00 0.00 0.00 46 1014.0
20260509134547 11 185 6.4 14.5 0.00 0.00 0.00 41 1014.0
20260509133041 11 0 3.2 14.5 0.00 0.00 0.00 45 1014.0
20260509131559 11 217 8.0 14.5 0.00 0.00 0.00 44 1014.1
20260509130119 11 227 6.4 11.3 0.00 0.00 0.00 49 1014.3
20260509124549 10 233 3.2 9.7 0.00 0.00 0.00 48 1014.4
20260509123116 9 208 1.6 8.0 0.00 0.00 0.00 55 1014.4
20260509121542 8 258 4.8 8.0 0.00 0.00 0.00 56 1014.5
20260509120048 8 236 4.8 11.3 0.00 0.00 0.00 59 1014.5
20260509114621 8 230 6.4 8.0 0.00 0.00 0.00 60 1014.4
20260509113052 7 217 4.8 8.0 0.00 0.00 0.00 63 1014.5
20260509111545 6 232 3.2 8.0 0.00 0.00 0.00 64 1014.4
20260509110057 6 226 3.2 6.4 0.00 0.00 0.00 66 1014.5
20260509104541 5 202 3.2 8.0 0.00 0.00 0.00 69 1014.4
20260509103041 4 221 3.2 6.4 0.00 0.00 0.00 71 1014.1
20260509101559 3 355 0.0 0.0 0.00 0.00 0.00 71 1013.8
20260509100046 3 0 0.0 0.0 0.00 0.00 0.00 70 1013.6
20260509094546 4 0 0.0 0.0 0.00 0.00 0.00 67 1013.4
20260509093041 5 0 0.0 0.0 0.00 0.00 0.00 64 1013.3
20260509091544 5 0 0.0 0.0 0.00 0.00 0.00 65 1013.2
20260509090049 5 0 0.0 1.6 0.00 0.00 0.00 65 1012.9
20260509084552 5 355 1.6 3.2 0.00 0.00 0.00 65 1012.9
20260509083045 5 286 0.0 4.8 0.00 0.00 0.00 63 1012.8
20260509081548 5 278 1.6 4.8 0.00 0.00 0.00 64 1013.1
20260509080050 4 273 4.8 9.7 0.00 0.00 0.00 68 1013.3
20260509074543 3 228 1.6 6.4 0.00 0.00 0.00 68 1013.3
20260509073048 3 222 3.2 4.8 0.00 0.00 0.00 67 1013.1
20260509071543 4 265 3.2 4.8 0.00 0.00 0.00 65 1013.0
20260509070051 5 0 0.0 3.2 0.00 0.00 0.00 62 1013.0
20260509064553 5 0 0.0 4.8 0.00 0.00 0.00 60 1013.0
20260509063041 5 258 1.6 4.8 0.00 0.00 0.00 60 1012.9
20260509061601 5 242 3.2 4.8 0.00 0.00 0.00 58 1012.9
20260509060048 5 241 1.6 4.8 0.00 0.00 0.00 55 1012.8
20260509054606 5 0 0.0 0.0 0.00 0.00 0.00 53 1012.9
20260509053052 6 0 0.0 0.0 0.00 0.00 0.00 52 1012.7
20260509051544 6 0 0.0 0.0 0.00 0.00 0.00 55 1012.7
20260509050052 6 0 0.0 0.0 0.00 0.00 0.00 53 1012.7
20260509044548 6 0 0.0 0.0 0.00 0.00 0.00 53 1012.7
20260509043044 7 0 0.0 1.6 0.00 0.00 0.00 45 1012.6
20260509041542 7 0 0.0 0.0 0.00 0.00 0.00 44 1012.7
20260509040049 7 0 0.0 0.0 0.00 0.00 0.00 46 1012.5
20260509034541 7 0 0.0 3.2 0.00 0.00 0.00 47 1012.3
20260509033048 6 229 0.0 4.8 0.00 0.00 0.00 49 1012.2